SCP
0 0 0 0 0 0 0 0 0 0 0 0 0 0 0 0 0 0 0 0 0 0 0 0 0 0 0 0 0 0 0 0 0 0 0 0 0 0 0 0 0 0 0 0 0
0 0 0 0 0 0 0 0 0 0 0 0 0 0 0 0 -0 0 0 0 0 0 0 0 0 0 0 0 0 0 0 0 0 0 0 0 0 0 0 0 0 0 0 0 0
0 0 0 0 0 0 0 0 0 0 0 0 0 0 0 0 -0 0 0 0 0 0 0 0 0 0 0 0 0 0 0 0 0 0 0 -0 -0 0 0 0 0 0 0 0 0
0 0 0 0 0 0 0 0 0 0 0 0 0 0 0 0 0 0 0 0 0 0 0 0 0 0 0 0 0 0 0 0 0 0 0 -0 0 0 0 0 0 0 0 0 0
0 0 0 0 0 0 0 0 0 0 0 0 0 0 0 0 0 0 0 0 0 0 0 0 0 0 0 0 0 0 0 0 0 0 0 0 0 0 0 0 0 0 0 0 0
0 0 0 0 0 0 0 0 0 0 0 0 0 0 0 0 0 0 0 0 0 0 0 0 0 0 0 0 0 0 0 0 0 0 0 0 -0 0 -0 0 0 0 0 0 0
0 0 0 0 0 0 0 0 0 0 0 0 0 0 0 0 0 0 0 0 0 0 0 0 0 0 0 0 0 0 0 0 0 -0 -0 -0 -0 -0 -0 0 0 0 0 0 0
0 0 0 0 0 0 0 0 0 0 0 0 0 0 0 0 0 0 0 0 0 0 0 0 0 0 0 0 0 0 0 0 -0 0 0 0 0 0 -0 0 0 0 0 0 0
0 0 0 0 0 0 0 0 0 0 0 0 0 0 -0 0 0 0 0 0 0 0 0 0 0 0 0 0 0 0 0 0 -0 -0 -0 0 -0 -0 -0 0 -0 0 0 0 0
0 0 0 0 0 0 0 0 0 0 0 0 0 0 0 0 0 0 0 0 0 0 0 0 0 0 0 0 0 0 0 0 -0 -0 0 -0 -0 0 0 0 0 0 0 0 0
0 0 0 0 0 0 0 0 0 0 0 0 0 0 0 0 0 0 0 0 0 0 0 0 0 0 -0 -0 -0 0 0 0 -0 0 0 -0 0 -0 -0 0 0 0 0 0 0
0 0 0 0 0 0 0 0 0 0 0 0 0 0 0 0 0 0 0 0 0 0 0 0 0 0 -0 -0 -0 0 0 0 0 0 0 0 -0 -0 0 -0 0 0 0 0 0
0 0 0 0 0 0 0 0 0 0 0 -0 0 0 0 0 0 0 0 0 0 0 0 0 0 0 0 0 0 0 -0 -0 -0 0 -0 0 -0 0 -0 0 0 0 0 0 0
0 0 0 0 0 0 0 0 0 0 0 -0 -0 0 0 0 0 0 0 0 0 0 0 0 0 0 0 0 0 -0 0 0 0 0 -0 0 0 0 0 0 0 0 0 0 0
0 0 0 0 0 0 0 0 0 0 0 0 0 0 0 0 0 0 0 0 0 0 0 0 0 0 0 0 0 0 0 0 -0 0 0 -0 0 0 0 -0 -0 0 0 0 0
0 0 0 0 0 0 0 0 0 0 0 0 0 0 0 0 0 0 0 0 0 0 0 0 0 0 0 0 0 0 0 0 0 0 -0 -0 0 0 0 0 0 0 0 0 0
0 0 0 0 0 0 0 0 0 0 0 0 0 0 0 -0 0 0 0 0 0 0 0 0 0 0 0 0 0 0 0 0 0 0 -0 -0 0 -0 -0 -0 0 0 0 0 0
0 0 0 0 0 0 0 0 0 0 0 0 0 0 0 0 0 0 0 0 0 0 0 0 0 0 0 0 0 -0 0 0 0 0 0 0 0 -0 -0 0 -0 0 -0 0 0
0 0 0 0 0 0 0 0 0 0 0 0 -0 0 0 0 0 0 -0 0 0 0 0 0 0 0 0 0 0 0 -0 -0 0 0 0 0 0 0 0 0 0 0 0 0 0
0 0 0 0 0 0 0 0 0 0 0 0 -0 0 0 0 0 0 0 0 0 0 0 0 0 0 0 0 0 -0 0 0 0 -0 0 0 0 0 0 0 0 0 0 0 0
0 0 0 0 0 0 0 0 0 0 0 0 0 0 0 0 0 0 0 0 0 0 0 0 0 0 0 0 -0 0 0 0 0 0 0 0 0 -0 0 0 -0 -0 0 0 0
0 0 0 -0 0 0 0 0 0 0 -0 0 -0 -0 0 -0 0 0 0 0 0 0 0 0 0 0 -0 0 0 0 0 0 0 0 0 0 0 0 0 0 -0 -0 0 0 0
0 0 0 -0 0 0 -0 -0 0 -0 0 0 0 0 0 -0 -0 -0 0 0 0 0 0 0 0 0 0 0 0 0 0 0 0 0 0 0 0 0 -0 0 0 -0 -0 0 0
0 0 0 0 0 -0 -0 -0 -0 0 0 0 0 0 0 0 -0 -0 0 0 0 0 0 0 0 0 0 0 0 0 0 0 0 0 0 0 0 0 0 0 0 -0 -0 -0 0
0 0 -0 0 0 -0 -0 0 0 0 0 0 -0 0 0 0 -0 -0 0 0 0 0 0 0 0 0 0 0 0 0 0 0 0 0 0 0 0 0 0 0 -0 -0 -0 -0 0
0 0 -0 -0 -0 0 -0 -0 0 0 0 0 0 0 0 0 -0 -0 -0 0 0 0 0 0 0 0 0 0 0 0 0 0 0 0 0 0 0 0 0 0 0 0 -0 -0 -0
0 0 0 0 0 0 0 0 -0 -0 0 0 0 0 0 0 -0 -0 -0 -0 0 0 0 0 0 0 0 0 0 0 0 0 0 0 0 0 0 0 0 0 0 0 -0 -0 -0
Wind_Speed_500mb
48 49 50 51 53 52 47 47 44 44 43 41 41 40 40 49 44 44 56 43 32 36 41 23 38 36 33 27 37 18 4 16 13 14 22 46 9 49 29 20 19 22 24 24 46
44 45 48 53 55 55 54 52 48 48 46 45 43 43 41 48 52 59 49 44 41 41 46 55 41 38 38 14 26 19 11 27 28 22 21 47 19 42 15 31 13 6 22 21 55
46 45 46 46 48 52 54 53 52 49 49 48 46 45 42 43 49 67 29 33 30 49 58 41 38 32 37 31 39 19 28 40 46 51 52 50 54 56 15 11 37 24 38 42 60
39 40 43 47 49 48 49 53 54 52 49 50 49 49 42 35 14 6 27 18 3 33 52 46 44 40 14 19 71 15 36 53 66 70 58 40 63 33 32 36 44 29 36 50 63
41 40 40 41 46 51 51 49 51 53 53 52 51 50 44 35 51 20 31 24 19 9 61 59 45 50 27 22 41 30 45 62 66 68 66 70 48 46 36 53 37 29 48 56 60
41 43 43 42 42 43 45 47 47 50 51 49 51 53 45 32 69 70 69 63 52 33 32 64 53 70 11 29 33 43 40 46 55 57 64 39 50 29 50 52 55 48 51 53 58
40 41 42 42 42 42 45 49 48 44 46 42 45 45 55 80 53 35 43 68 70 67 56 55 61 26 19 22 66 53 28 31 30 45 47 45 32 19 55 58 51 56 51 52 56
43 42 42 44 45 46 44 43 50 49 40 32 31 33 39 53 58 74 65 55 57 60 62 52 39 61 59 38 25 13 10 14 27 28 53 23 44 28 62 61 54 56 54 55 59
43 45 44 44 48 51 49 46 40 49 34 30 33 31 37 33 53 75 76 87 63 61 53 52 48 44 16 25 10 8 26 27 30 24 25 15 34 24 62 64 60 57 53 60 65
45 45 46 45 44 48 55 55 48 37 33 20 23 13 41 38 49 50 64 77 69 49 55 47 34 15 11 10 19 22 13 11 33 33 16 22 25 37 60 49 54 48 49 58 59
51 51 47 43 45 45 49 50 12 6 22 31 39 49 19 13 16 24 25 46 50 28 26 46 17 32 48 50 37 19 13 18 40 38 13 17 29 44 43 23 31 53 62 60 41
49 51 53 49 43 37 35 20 19 25 30 49 79 72 71 44 20 42 32 32 35 36 17 16 51 43 36 33 31 25 25 31 43 36 10 28 34 43 20 15 40 53 60 47 30
50 46 45 49 50 33 24 27 34 46 17 35 62 69 79 64 40 68 31 38 15 25 38 50 17 37 41 28 26 34 36 43 39 34 16 19 27 25 22 11 14 29 37 31 43
47 47 45 42 37 21 29 18 37 26 9 15 21 28 63 48 27 91 59 28 18 41 42 33 44 35 38 36 33 36 39 38 40 25 15 14 11 11 14 14 9 33 32 26 56
47 44 43 31 38 45 23 23 23 23 10 7 9 13 26 68 34 48 93 53 35 28 23 23 40 50 43 53 44 40 29 35 34 28 15 42 4 16 12 12 17 18 18 46 67
46 45 41 40 40 32 29 26 11 4 17 13 18 24 5 44 32 3 51 51 42 26 37 36 29 40 50 36 44 48 23 17 16 16 14 32 8 25 10 15 12 2 35 56 64
49 45 40 36 41 19 20 17 1 12 18 3 27 41 37 11 32 13 17 41 21 26 39 25 43 32 23 45 33 24 15 6 6 12 18 19 12 35 15 18 17 16 41 55 66
53 44 41 38 25 19 8 1 16 13 26 38 36 37 20 41 22 29 12 38 46 28 24 30 21 49 46 45 39 45 27 12 13 8 8 14 14 22 19 17 31 49 57 65 69
50 39 37 22 14 14 4 11 7 10 19 30 37 17 20 40 23 19 43 28 46 42 17 31 31 13 50 29 40 16 38 30 7 5 4 9 12 17 1 11 20 34 51 61 68
39 31 18 17 16 21 4 17 5 20 30 27 16 15 34 34 25 34 10 15 33 46 17 10 11 32 31 34 37 49 12 12 1 22 11 8 6 10 6 16 18 21 34 54 64
29 18 10 5 13 12 5 8 12 36 28 13 22 22 31 32 25 25 17 19 38 12 33 24 9 11 32 40 56 14 34 12 12 13 15 7 16 15 24 23 29 30 50 70 70
18 5 7 11 4 3 3 6 12 23 35 22 11 13 18 26 28 16 17 19 54 42 19 41 9 19 32 1 38 29 17 34 15 10 5 12 16 10 16 31 33 33 55 71 74
26 11 13 10 2 1 7 16 24 25 24 9 12 21 26 23 16 13 18 18 39 38 28 14 30 12 14 5 8 39 33 22 10 8 16 13 14 8 5 23 41 45 57 70 72
11 7 8 16 8 2 7 12 7 18 23 28 12 16 19 22 24 17 25 20 53 47 27 16 10 53 30 22 14 14 36 26 18 10 12 24 10 10 13 24 17 39 65 74 76
6 5 9 6 6 10 7 9 20 12 14 17 9 15 22 18 21 30 34 39 33 20 22 11 15 36 58 30 6 7 33 39 28 26 26 14 20 17 21 28 41 64 63 65 73
9 8 16 17 21 10 8 5 18 19 10 19 15 18 12 21 26 26 24 17 12 14 24 12 12 14 41 61 45 29 16 46 40 17 16 23 14 17 34 52 39 52 63 64 75
10 17 14 12 8 6 5 18 23 28 22 15 22 24 25 20 23 27 18 20 22 28 17 8 10 14 40 38 40 36 41 24 34 30 26 19 15 16 14 31 45 51 71 73 80
Wind_Direction_500mb
283 283 282 283 284 284 283 281 282 282 282 280 280 283 286 286 283 274 265 267 267 255 250 241 215 221 219 227 221 213 126 258 242 231 261 292 298 296 309 313 230 225 206 237 193
287 284 282 282 281 280 280 280 278 277 277 277 276 277 280 283 286 278 281 280 261 246 237 227 220 216 228 241 223 183 174 241 240 255 265 277 253 285 299 316 312 248 212 197 180
296 291 287 284 280 279 279 279 277 274 276 274 273 272 275 282 295 281 274 260 234 217 228 231 227 220 234 237 232 211 226 245 265 261 264 272 285 282 277 291 287 200 180 179 183
303 300 294 290 286 282 278 276 276 276 275 274 271 268 267 266 232 206 200 192 203 213 214 226 223 227 213 216 242 256 249 246 258 267 271 268 273 268 260 279 288 253 205 189 189
307 305 301 297 292 289 285 278 275 275 272 271 271 270 264 239 231 210 211 243 284 219 212 215 212 222 219 232 249 247 245 249 255 264 269 272 268 260 257 281 281 228 196 197 203
329 315 307 302 298 291 287 288 279 271 270 270 268 268 264 241 252 248 245 255 254 244 233 224 223 226 289 236 238 247 256 259 269 272 269 274 273 253 275 282 285 212 203 205 206
331 333 327 319 314 302 291 286 280 273 268 269 267 270 261 248 251 251 236 241 240 242 244 236 234 217 220 257 257 265 270 276 271 274 267 279 277 253 275 278 271 209 211 207 207
326 325 324 325 318 312 309 292 277 271 269 265 267 259 253 261 267 252 233 229 230 229 230 235 248 237 241 259 297 298 288 263 261 262 270 235 269 276 281 274 248 218 219 214 214
327 325 323 320 320 320 315 309 302 272 257 251 262 251 282 268 246 259 240 234 223 224 225 229 240 219 233 223 278 242 255 256 273 256 266 215 271 271 282 268 242 225 226 236 235
321 317 320 321 319 321 318 317 309 262 246 231 235 274 249 235 244 247 238 232 223 225 231 217 224 197 200 176 219 222 232 244 256 252 266 275 267 266 263 251 222 221 242 241 245
323 320 314 311 315 322 323 333 356 355 205 208 206 203 79 231 234 243 235 208 203 219 195 197 196 213 209 220 229 244 246 256 260 263 268 260 266 267 268 248 226 229 242 248 252
318 317 317 312 307 315 313 314 353 324 292 261 253 242 245 256 295 248 222 163 183 201 158 215 222 212 224 229 228 231 243 255 273 266 244 274 284 267 262 235 228 235 241 245 220
320 317 312 311 307 308 276 305 345 339 266 278 244 240 230 248 240 254 206 194 174 188 198 208 219 202 207 213 218 223 227 242 255 282 259 268 282 275 285 266 242 256 259 233 206
319 317 316 310 306 288 298 312 322 347 283 270 212 242 210 220 252 235 224 197 203 197 207 232 224 203 214 221 214 238 221 234 246 264 258 146 267 287 246 267 286 299 306 218 191
319 318 313 301 288 286 305 292 326 138 300 222 219 215 203 187 135 210 219 203 216 179 180 203 187 211 222 217 212 233 226 238 247 253 253 277 255 260 266 276 274 268 211 186 183
322 321 316 298 275 291 303 319 331 113 249 300 58 348 138 212 228 118 180 199 208 222 218 211 190 206 220 224 213 230 240 243 259 245 238 251 177 275 219 224 262 13 183 178 181
321 316 306 289 269 306 308 336 318 212 315 130 356 345 320 189 228 250 181 189 180 197 219 216 218 220 191 209 219 200 183 250 269 214 228 231 216 248 226 230 213 174 176 181 180
322 314 305 282 278 274 343 68 222 239 260 302 349 340 49 19 341 230 245 194 211 189 179 207 218 211 208 205 207 222 204 191 187 205 221 207 221 255 231 270 222 177 171 175 178
324 322 309 324 249 191 206 215 212 353 304 345 352 356 351 351 334 333 219 221 205 202 158 195 226 243 204 202 191 202 211 212 215 294 132 215 273 329 54 111 125 145 154 169 179
339 329 356 343 184 196 149 231 281 334 315 331 342 347 330 334 338 354 298 269 229 215 219 212 198 233 211 199 225 218 157 164 312 216 221 274 225 221 160 160 153 151 165 170 176
351 330 356 20 162 197 209 211 273 272 322 324 327 312 317 327 322 327 279 30 31 313 223 250 59 326 200 205 206 177 211 209 170 170 192 209 254 210 200 182 166 177 173 174 178
333 306 284 183 137 139 266 267 319 274 292 297 266 304 309 320 309 312 266 309 351 344 306 209 133 240 245 286 209 214 186 195 208 219 193 164 254 288 198 167 166 168 174 179 183
324 281 329 188 87 192 288 285 270 274 265 260 297 290 295 288 291 314 299 320 344 348 352 327 214 252 322 173 241 201 205 190 134 114 185 157 248 240 224 154 169 159 173 179 180
325 323 347 64 41 241 246 256 268 301 299 261 267 296 286 308 261 266 277 308 333 325 349 324 253 210 216 214 168 198 206 186 163 161 172 203 181 162 161 151 157 168 172 176 179
337 284 339 328 289 252 255 277 286 290 247 289 278 239 262 284 285 266 265 290 321 285 360 19 255 207 220 247 230 193 207 197 187 185 186 192 173 197 177 176 180 176 169 168 174
316 326 343 288 290 328 310 318 323 319 285 292 284 304 338 294 269 291 271 269 284 298 351 349 292 241 220 230 237 250 251 203 204 186 138 166 199 196 187 186 164 173 168 173 179
311 322 329 298 313 1 246 348 312 310 295 276 295 296 301 295 334 263 232 238 240 276 303 285 333 330 221 218 234 241 237 221 196 180 156 178 195 164 155 173 180 177 176 180 184
Wind_Speed_850mb
48 49 50 51 53 52 47 47 44 44 43 41 41 40 40 49 44 44 56 43 32 36 41 23 38 36 33 27 37 18 4 16 13 14 22 46 9 49 29 20 19 22 24 24 46
44 45 48 53 55 55 54 52 48 48 46 45 43 43 41 48 52 59 49 44 41 41 46 55 41 38 38 14 26 19 11 27 28 22 21 47 19 42 15 31 13 6 22 21 55
46 45 46 46 48 52 54 53 52 49 49 48 46 45 42 43 49 67 29 33 30 49 58 41 38 32 37 31 39 19 28 40 46 51 52 50 54 56 15 11 37 24 38 42 60
39 40 43 47 49 48 49 53 54 52 49 50 49 49 42 35 14 6 27 18 3 33 52 46 44 40 14 19 71 15 36 53 66 70 58 40 63 33 32 36 44 29 36 50 63
41 40 40 41 46 51 51 49 51 53 53 52 51 50 44 35 51 20 31 24 19 9 61 59 45 50 27 22 41 30 45 62 66 68 66 70 48 46 36 53 37 29 48 56 60
41 43 43 42 42 43 45 47 47 50 51 49 51 53 45 32 69 70 69 63 52 33 32 64 53 70 11 29 33 43 40 46 55 57 64 39 50 29 50 52 55 48 51 53 58
40 41 42 42 42 42 45 49 48 44 46 42 45 45 55 80 53 35 43 68 70 67 56 55 61 26 19 22 66 53 28 31 30 45 47 45 32 19 55 58 51 56 51 52 56
43 42 42 44 45 46 44 43 50 49 40 32 31 33 39 53 58 74 65 55 57 60 62 52 39 61 59 38 25 13 10 14 27 28 53 23 44 28 62 61 54 56 54 55 59
43 45 44 44 48 51 49 46 40 49 34 30 33 31 37 33 53 75 76 87 63 61 53 52 48 44 16 25 10 8 26 27 30 24 25 15 34 24 62 64 60 57 53 60 65
45 45 46 45 44 48 55 55 48 37 33 20 23 13 41 38 49 50 64 77 69 49 55 47 34 15 11 10 19 22 13 11 33 33 16 22 25 37 60 49 54 48 49 58 59
51 51 47 43 45 45 49 50 12 6 22 31 39 49 19 13 16 24 25 46 50 28 26 46 17 32 48 50 37 19 13 18 40 38 13 17 29 44 43 23 31 53 62 60 41
49 51 53 49 43 37 35 20 19 25 30 49 79 72 71 44 20 42 32 32 35 36 17 16 51 43 36 33 31 25 25 31 43 36 10 28 34 43 20 15 40 53 60 47 30
50 46 45 49 50 33 24 27 34 46 17 35 62 69 79 64 40 68 31 38 15 25 38 50 17 37 41 28 26 34 36 43 39 34 16 19 27 25 22 11 14 29 37 31 43
47 47 45 42 37 21 29 18 37 26 9 15 21 28 63 48 27 91 59 28 18 41 42 33 44 35 38 36 33 36 39 38 40 25 15 14 11 11 14 14 9 33 32 26 56
47 44 43 31 38 45 23 23 23 23 10 7 9 13 26 68 34 48 93 53 35 28 23 23 40 50 43 53 44 40 29 35 34 28 15 42 4 16 12 12 17 18 18 46 67
46 45 41 40 40 32 29 26 11 4 17 13 18 24 5 44 32 3 51 51 42 26 37 36 29 40 50 36 44 48 23 17 16 16 14 32 8 25 10 15 12 2 35 56 64
49 45 40 36 41 19 20 17 1 12 18 3 27 41 37 11 32 13 17 41 21 26 39 25 43 32 23 45 33 24 15 6 6 12 18 19 12 35 15 18 17 16 41 55 66
53 44 41 38 25 19 8 1 16 13 26 38 36 37 20 41 22 29 12 38 46 28 24 30 21 49 46 45 39 45 27 12 13 8 8 14 14 22 19 17 31 49 57 65 69
50 39 37 22 14 14 4 11 7 10 19 30 37 17 20 40 23 19 43 28 46 42 17 31 31 13 50 29 40 16 38 30 7 5 4 9 12 17 1 11 20 34 51 61 68
39 31 18 17 16 21 4 17 5 20 30 27 16 15 34 34 25 34 10 15 33 46 17 10 11 32 31 34 37 49 12 12 1 22 11 8 6 10 6 16 18 21 34 54 64
29 18 10 5 13 12 5 8 12 36 28 13 22 22 31 32 25 25 17 19 38 12 33 24 9 11 32 40 56 14 34 12 12 13 15 7 16 15 24 23 29 30 50 70 70
18 5 7 11 4 3 3 6 12 23 35 22 11 13 18 26 28 16 17 19 54 42 19 41 9 19 32 1 38 29 17 34 15 10 5 12 16 10 16 31 33 33 55 71 74
26 11 13 10 2 1 7 16 24 25 24 9 12 21 26 23 16 13 18 18 39 38 28 14 30 12 14 5 8 39 33 22 10 8 16 13 14 8 5 23 41 45 57 70 72
11 7 8 16 8 2 7 12 7 18 23 28 12 16 19 22 24 17 25 20 53 47 27 16 10 53 30 22 14 14 36 26 18 10 12 24 10 10 13 24 17 39 65 74 76
6 5 9 6 6 10 7 9 20 12 14 17 9 15 22 18 21 30 34 39 33 20 22 11 15 36 58 30 6 7 33 39 28 26 26 14 20 17 21 28 41 64 63 65 73
9 8 16 17 21 10 8 5 18 19 10 19 15 18 12 21 26 26 24 17 12 14 24 12 12 14 41 61 45 29 16 46 40 17 16 23 14 17 34 52 39 52 63 64 75
10 17 14 12 8 6 5 18 23 28 22 15 22 24 25 20 23 27 18 20 22 28 17 8 10 14 40 38 40 36 41 24 34 30 26 19 15 16 14 31 45 51 71 73 80
Wind_Direction_850mb
283 283 282 283 284 284 283 281 282 282 282 280 280 283 286 286 283 274 265 267 267 255 250 241 215 221 219 227 221 213 126 258 242 231 261 292 298 296 309 313 230 225 206 237 193
287 284 282 282 281 280 280 280 278 277 277 277 276 277 280 283 286 278 281 280 261 246 237 227 220 216 228 241 223 183 174 241 240 255 265 277 253 285 299 316 312 248 212 197 180
296 291 287 284 280 279 279 279 277 274 276 274 273 272 275 282 295 281 274 260 234 217 228 231 227 220 234 237 232 211 226 245 265 261 264 272 285 282 277 291 287 200 180 179 183
303 300 294 290 286 282 278 276 276 276 275 274 271 268 267 266 232 206 200 192 203 213 214 226 223 227 213 216 242 256 249 246 258 267 271 268 273 268 260 279 288 253 205 189 189
307 305 301 297 292 289 285 278 275 275 272 271 271 270 264 239 231 210 211 243 284 219 212 215 212 222 219 232 249 247 245 249 255 264 269 272 268 260 257 281 281 228 196 197 203
329 315 307 302 298 291 287 288 279 271 270 270 268 268 264 241 252 248 245 255 254 244 233 224 223 226 289 236 238 247 256 259 269 272 269 274 273 253 275 282 285 212 203 205 206
331 333 327 319 314 302 291 286 280 273 268 269 267 270 261 248 251 251 236 241 240 242 244 236 234 217 220 257 257 265 270 276 271 274 267 279 277 253 275 278 271 209 211 207 207
326 325 324 325 318 312 309 292 277 271 269 265 267 259 253 261 267 252 233 229 230 229 230 235 248 237 241 259 297 298 288 263 261 262 270 235 269 276 281 274 248 218 219 214 214
327 325 323 320 320 320 315 309 302 272 257 251 262 251 282 268 246 259 240 234 223 224 225 229 240 219 233 223 278 242 255 256 273 256 266 215 271 271 282 268 242 225 226 236 235
321 317 320 321 319 321 318 317 309 262 246 231 235 274 249 235 244 247 238 232 223 225 231 217 224 197 200 176 219 222 232 244 256 252 266 275 267 266 263 251 222 221 242 241 245
323 320 314 311 315 322 323 333 356 355 205 208 206 203 79 231 234 243 235 208 203 219 195 197 196 213 209 220 229 244 246 256 260 263 268 260 266 267 268 248 226 229 242 248 252
318 317 317 312 307 315 313 314 353 324 292 261 253 242 245 256 295 248 222 163 183 201 158 215 222 212 224 229 228 231 243 255 273 266 244 274 284 267 262 235 228 235 241 245 220
320 317 312 311 307 308 276 305 345 339 266 278 244 240 230 248 240 254 206 194 174 188 198 208 219 202 207 213 218 223 227 242 255 282 259 268 282 275 285 266 242 256 259 233 206
319 317 316 310 306 288 298 312 322 347 283 270 212 242 210 220 252 235 224 197 203 197 207 232 224 203 214 221 214 238 221 234 246 264 258 146 267 287 246 267 286 299 306 218 191
319 318 313 301 288 286 305 292 326 138 300 222 219 215 203 187 135 210 219 203 216 179 180 203 187 211 222 217 212 233 226 238 247 253 253 277 255 260 266 276 274 268 211 186 183
322 321 316 298 275 291 303 319 331 113 249 300 58 348 138 212 228 118 180 199 208 222 218 211 190 206 220 224 213 230 240 243 259 245 238 251 177 275 219 224 262 13 183 178 181
321 316 306 289 269 306 308 336 318 212 315 130 356 345 320 189 228 250 181 189 180 197 219 216 218 220 191 209 219 200 183 250 269 214 228 231 216 248 226 230 213 174 176 181 180
322 314 305 282 278 274 343 68 222 239 260 302 349 340 49 19 341 230 245 194 211 189 179 207 218 211 208 205 207 222 204 191 187 205 221 207 221 255 231 270 222 177 171 175 178
324 322 309 324 249 191 206 215 212 353 304 345 352 356 351 351 334 333 219 221 205 202 158 195 226 243 204 202 191 202 211 212 215 294 132 215 273 329 54 111 125 145 154 169 179
339 329 356 343 184 196 149 231 281 334 315 331 342 347 330 334 338 354 298 269 229 215 219 212 198 233 211 199 225 218 157 164 312 216 221 274 225 221 160 160 153 151 165 170 176
351 330 356 20 162 197 209 211 273 272 322 324 327 312 317 327 322 327 279 30 31 313 223 250 59 326 200 205 206 177 211 209 170 170 192 209 254 210 200 182 166 177 173 174 178
333 306 284 183 137 139 266 267 319 274 292 297 266 304 309 320 309 312 266 309 351 344 306 209 133 240 245 286 209 214 186 195 208 219 193 164 254 288 198 167 166 168 174 179 183
324 281 329 188 87 192 288 285 270 274 265 260 297 290 295 288 291 314 299 320 344 348 352 327 214 252 322 173 241 201 205 190 134 114 185 157 248 240 224 154 169 159 173 179 180
325 323 347 64 41 241 246 256 268 301 299 261 267 296 286 308 261 266 277 308 333 325 349 324 253 210 216 214 168 198 206 186 163 161 172 203 181 162 161 151 157 168 172 176 179
337 284 339 328 289 252 255 277 286 290 247 289 278 239 262 284 285 266 265 290 321 285 360 19 255 207 220 247 230 193 207 197 187 185 186 192 173 197 177 176 180 176 169 168 174
316 326 343 288 290 328 310 318 323 319 285 292 284 304 338 294 269 291 271 269 284 298 351 349 292 241 220 230 237 250 251 203 204 186 138 166 199 196 187 186 164 173 168 173 179
311 322 329 298 313 1 246 348 312 310 295 276 295 296 301 295 334 263 232 238 240 276 303 285 333 330 221 218 234 241 237 221 196 180 156 178 195 164 155 173 180 177 176 180 184